CanjetBLOCKVirtuelBLOCKQcBLOCKBLOCKBLOCKBLOCKBLOCKBLOCKBLOCKBLOCKBLOCKBLOCKBLOCKvolsBLOCKavecBLOCKFS-kACARS2020-11-24BLOCK01colon35am

volsBLOCKBLOCKBLOCKBLOCKBLOCKpilotesBLOCKBLOCKBLOCKBLOCKBLOCKBLOCKBLOCKBLOCKtypeBLOCKBLOCKdepBLOCKBLOCKarrBLOCKBLOCKBLOCKBLOCKBLOCKaltBLOCKBLOCKBLOCKBLOCKBLOCKgsBLOCKBLOCKBLOCKBLOCKstatut

CJA9999StephaneBLOCKGA388ESSA-FACT32999ft461kts10colon48am
cja9999Jean-PierreBLOCKAA320PASI-PAYA0ft0ktsarrived











BLOCKAppuyerBLOCKsurBLOCKF5BLOCKpourBLOCKactualiserBLOCKBLOCKBLOCKMiseBLOCKaBLOCKjourcolonBLOCK01colon35colon09amCanjetBLOCKvirtuelBLOCKQC

Bienvenue chez Canjetvirtuel-Q

Publié par Michel Ayotte le 2013-06-14

 

Canjetvirtuel-Québec est une compagnie aérienne virtuelle qui a été fondée par 2 passionnés de la simulation de vol.

Elle est opérée avec les Boeing 737. Exceptionnelement et pour votre plaisir tous les autres versions de Boeing et Airbus sont autorisées.

Ces appareils pouvant faire des vols cargos ou des vols passagers, que ce soit au Canada, Europe, États-Unis, Mexique, Caraïbes et autres destinations mondiales.

Vous trouverez votre place comme pilote chez nous!



Avis

Aux fins de la simulation de vol seulement. CanjetVirtuel Québec n'est en aucun cas affilié avec n'importe quelle compagnie aérienne du monde réel. CanjetVirtuel Québec est un site à but non lucratif gérée par des amateurs de simulation de vol. Toutes les images sont la propriété exclusive de leurs propriétaires respectifs.
| propulsé par phpVMS, © 2013-2020.

Notice

For flight simulation purposes only. CanjetVirtuel Quebec is in no way affiliated with any real world airline. CanjetVirtuel Quebec is a non-profit site run by flight simulation enthusiasts. All images are the sole property of their respective owners.
| powered by phpVMS, © 2013-2020.

Affiliations

Vatsim

Les statistiques du site

Nombre de pilotes: 15
Total des vols effectués: 7177
Trajets disponibles: 684
Passagers transportés: 1885943
Total des heures de vol: 24158
Distance totale (NM): 9454467
Pilotes en ligne: 2

Nouvelles

Bienvenue chez Canjetvirtuel-Q
06/14/2013

METAR

CYHZ 240613Z 30014G24KT 12SM -RA BKN008 OVC027 07/06 A2944 RMK SF5SC3 -RA INTMT SLP974

CYQB 240600Z 23005KT 200V290 15SM OVC034 M02/M07 A2994 RMK SC8 SLP145

CYUL 240600Z 30017G23KT 15SM BKN037 BKN070 BKN100 00/M06 A3010 RMK SC7AC1AC1 AC TR AC TR SLP195

CYYZ 240600Z 32010KT 15SM SCT022 01/M01 A3025 RMK SC3 SLP253